John Hopkins Middle School FL US WEATHERSTEM current weather conditions

sailwx.info

Wind from 185 at 2 knots gusting 9

Air temperature 25.8° C
Dewpoint 22.3° C

Last reported at 2019-Sep-19 08:00 UTC.
Time now 2019-Sep-19 08:54 UTC

Location: N 27°46' W 082°39'.
View on Google Maps.

See reports from other nearby stations

  
Tides and Currents Weather Stations Pressure Air Temp Water Temp Dewpoint Dewpoint Depression Visibility Wind Speed Wind Dir Waves Ship Positions
date/time (UTC)wind fromknots sea level pressurealtimeterstation pressurevisibilityair tempwater tempwave heightnotes
2019-Sep-19 08:00 185 2 gusting 9 25.8
2019-Sep-19 07:50 180 2 gusting 8 25.8
2019-Sep-19 07:40 144 5 gusting 9 25.8
2019-Sep-19 07:30 145 1 gusting 8 25.8
2019-Sep-19 07:20 190 2 gusting 6 25.8
2019-Sep-19 07:10 128 6 gusting 10 25.9
2019-Sep-19 07:00 136 0 gusting 4 25.8
2019-Sep-19 06:50 067 0 gusting 6 25.8
2019-Sep-19 06:40 25.9
2019-Sep-19 06:30 097 1 gusting 8 25.9
2019-Sep-19 06:20 222 5 gusting 7 25.9
2019-Sep-19 06:10 26.1
2019-Sep-19 06:00 140 6 gusting 9 26.1
2019-Sep-19 05:50 038 0 gusting 5 26.1
2019-Sep-19 05:40 26.1
2019-Sep-19 05:30 26.2
2019-Sep-19 05:20 103 2 gusting 6 26.0
2019-Sep-19 05:10 074 0 gusting 5 26.2
2019-Sep-19 05:00 111 1 gusting 6 26.4
2019-Sep-19 04:50 142 0 gusting 6 26.6
2019-Sep-19 04:40 134 1 gusting 5 26.6
2019-Sep-19 04:30 26.6
2019-Sep-19 04:20 169 7 gusting 8 26.8
2019-Sep-19 04:10 190 3 gusting 6 26.7
2019-Sep-19 04:00 186 3 gusting 6 26.7
2019-Sep-19 03:50 223 2 gusting 5 26.4
2019-Sep-19 03:40 192 2 gusting 6 26.4
2019-Sep-19 03:30 184 0 gusting 6 26.5
2019-Sep-19 03:20 206 4 gusting 7 26.6
2019-Sep-19 03:10 196 4 gusting 7 26.8
2019-Sep-19 03:00 182 1 gusting 8 26.7
2019-Sep-19 02:50 190 4 gusting 10 27.1
2019-Sep-19 02:40 088 3 gusting 4 27.5
2019-Sep-19 02:30 103 3 gusting 3 27.5
2019-Sep-19 02:20 088 27.6
2019-Sep-19 02:10 27.7
2019-Sep-19 02:00 126 0 gusting 6 27.7
2019-Sep-19 01:50 111 1 gusting 2 27.7
2019-Sep-19 01:40 27.9
2019-Sep-19 01:30 115 2 gusting 4 27.9
2019-Sep-19 01:20 160 0 gusting 4 27.9
2019-Sep-19 01:10 27.4
2019-Sep-19 01:00 27.1
2019-Sep-19 00:50 26.6
2019-Sep-19 00:40 26.6
2019-Sep-19 00:30 190 2 gusting 3 26.6
2019-Sep-19 00:20 184 3 gusting 5 26.3
2019-Sep-19 00:10 25.9
2019-Sep-19 00:00 152 6 gusting 6 26.1
2019-Sep-18 23:50 228 26.5
2019-Sep-18 23:40 067 0 gusting 10 27.9
2019-Sep-18 23:30 103 1 gusting 6 29.1
2019-Sep-18 23:20 078 4 gusting 4 29.6
2019-Sep-18 23:10 172 1 gusting 5 30.4
2019-Sep-18 23:00 31.3
2019-Sep-18 22:50 222 31.3
2019-Sep-18 22:40 246 1 gusting 6 31.3
2019-Sep-18 22:30 31.4
2019-Sep-18 22:20 334 0 gusting 4 31.8
2019-Sep-18 22:10 31.8
2019-Sep-18 22:00 31.8
2019-Sep-18 21:50 350 4 gusting 4 31.8
2019-Sep-18 21:40 348 31.9
2019-Sep-18 21:30 344 3 gusting 3 31.9
2019-Sep-18 21:20 355 31.8
2019-Sep-18 21:10 331 0 gusting 5 31.8
2019-Sep-18 21:00 355 1 gusting 6 31.6
2019-Sep-18 20:50 017 0 gusting 5 32.0
2019-Sep-18 20:40 31.9
2019-Sep-18 20:30 019 31.8
2019-Sep-18 20:20 053 0 gusting 5 32.0
2019-Sep-18 20:10 331 3 gusting 4 32.3
2019-Sep-18 20:00 294 32.2
2019-Sep-18 19:50 327 2 gusting 9 32.1
2019-Sep-18 19:40 209 3 gusting 4 32.6
2019-Sep-18 19:30 32.3
2019-Sep-18 19:20 097 3 gusting 6 33.1
2019-Sep-18 19:10 173 0 gusting 6 33.8
2019-Sep-18 19:00 157 7 gusting 7 33.8
2019-Sep-18 18:50 157 1 gusting 5 32.9
2019-Sep-18 18:40 174 0 gusting 7 32.8
2019-Sep-18 18:30 180 2 gusting 6 32.7
2019-Sep-18 18:20 101 1 gusting 4 32.8
2019-Sep-18 18:10 217 3 gusting 6 32.7
2019-Sep-18 18:00 184 0 gusting 6 32.6
2019-Sep-18 17:50 227 6 gusting 6 32.0
2019-Sep-18 17:40 232 1 gusting 6 31.6
2019-Sep-18 17:30 235 3 gusting 6 31.5
2019-Sep-18 17:20 177 1 gusting 4 32.0
2019-Sep-18 17:10 31.6
2019-Sep-18 17:00 243 3 gusting 5 31.1
2019-Sep-18 16:50 181 3 gusting 6 30.9
2019-Sep-18 16:40 213 0 gusting 8 30.9
2019-Sep-18 16:30 196 1 gusting 6 30.6
2019-Sep-18 16:20 126 0 gusting 7 30.3
2019-Sep-18 16:10 158 1 gusting 6 30.3
2019-Sep-18 16:00 177 0 gusting 6 29.9
2019-Sep-18 15:50 105 1 gusting 6 29.9
2019-Sep-18 15:30 205 0 gusting 6 29.6
2019-Sep-18 15:20 29.2
2019-Sep-18 15:10 196 1 gusting 6 29.1
2019-Sep-18 15:00 228 0 gusting 4 29.1
2019-Sep-18 14:50 078 3 gusting 5 28.8
2019-Sep-18 14:40 154 1 gusting 6 28.8
2019-Sep-18 14:30 184 2 gusting 5 28.7
2019-Sep-18 14:20 176 0 gusting 4 28.6
2019-Sep-18 14:10 28.2
2019-Sep-18 14:00 173 0 gusting 4 28.3
2019-Sep-18 13:50 159 1 gusting 3 27.9
2019-Sep-18 13:40 105 0 gusting 3 27.6
2019-Sep-18 13:30 155 1 gusting 4 27.4
2019-Sep-18 13:20 27.2
2019-Sep-18 13:10 089 2 gusting 3 27.2
2019-Sep-18 13:00 099 1 gusting 4 27.0
2019-Sep-18 12:50 26.7
2019-Sep-18 12:40 104 1 gusting 2 26.6
2019-Sep-18 12:30 26.4
2019-Sep-18 12:20 25.9
2019-Sep-18 12:10 112 0 gusting 1 25.6
2019-Sep-18 12:00 24.8
2019-Sep-18 11:50 24.0
2019-Sep-18 11:40 23.5
2019-Sep-18 11:30 23.3
2019-Sep-18 11:20 23.2
2019-Sep-18 11:10 23.1
2019-Sep-18 11:00 23.3
2019-Sep-18 10:50 23.3
2019-Sep-18 10:40 23.2
2019-Sep-18 10:30 23.2
2019-Sep-18 10:20 23.1
2019-Sep-18 10:10 23.1
2019-Sep-18 10:00 23.2
2019-Sep-18 09:50 23.3
2019-Sep-18 09:40 23.6
2019-Sep-18 09:30 23.3
2019-Sep-18 09:20 23.4
2019-Sep-18 09:10 23.7
2019-Sep-18 09:00 23.8
2019-Sep-18 08:50 24.3
2019-Sep-18 08:40 24.3
2019-Sep-18 08:30 24.4
2019-Sep-18 08:20 24.6
2019-Sep-18 08:10 24.6
2019-Sep-18 08:00 24.6
2019-Sep-18 07:50 24.7
2019-Sep-18 07:40 24.9
2019-Sep-18 07:30 25.0
2019-Sep-18 07:20 25.3
2019-Sep-18 07:10 26.5
2019-Sep-18 07:00 27.1
2019-Sep-18 06:50 27.3
2019-Sep-18 06:40 27.2
2019-Sep-18 06:30 27.3
2019-Sep-18 06:20 27.2
2019-Sep-18 06:10 27.1
2019-Sep-18 06:00 27.0
2019-Sep-18 05:50 27.1
2019-Sep-18 05:40 27.0
2019-Sep-18 05:30 27.1
2019-Sep-18 05:20 26.9
2019-Sep-18 05:10 27.0
2019-Sep-18 05:00 26.9
2019-Sep-18 04:50 27.1
2019-Sep-18 04:40 27.2
2019-Sep-18 04:30 090 0 gusting 2 27.3
2019-Sep-18 04:20 092 1 gusting 1 27.3
2019-Sep-18 04:10 27.3
2019-Sep-18 04:00 27.5
2019-Sep-18 03:50 27.5
2019-Sep-18 03:40 27.7
2019-Sep-18 03:30 27.7
2019-Sep-18 03:20 27.8
2019-Sep-18 03:10 086 0 gusting 2 27.9
2019-Sep-18 03:00 089 0 gusting 3 28.0
2019-Sep-18 02:50 28.1
2019-Sep-18 02:40 28.2
2019-Sep-18 02:30 076 0 gusting 4 28.3
2019-Sep-18 02:20 28.3
2019-Sep-18 02:10 28.4
2019-Sep-18 02:00 070 1 gusting 3 28.4
2019-Sep-18 01:50 064 2 gusting 4 28.4
2019-Sep-18 01:40 062 0 gusting 2 28.5
2019-Sep-18 01:30 062 0 gusting 2 28.6
2019-Sep-18 01:20 28.7
2019-Sep-18 01:10 063 1 gusting 3 28.7
2019-Sep-18 01:00 066 2 gusting 3 28.7
2019-Sep-18 00:50 069 1 gusting 3 28.8
2019-Sep-18 00:40 078 1 gusting 3 29.0
2019-Sep-18 00:30 073 1 gusting 4 29.1
2019-Sep-18 00:20 084 1 gusting 5 29.2
2019-Sep-18 00:10 054 3 gusting 6 29.4
2019-Sep-18 00:00 065 1 gusting 6 29.6
2019-Sep-17 23:50 060 3 gusting 8 29.8
2019-Sep-17 23:40 059 5 gusting 8 29.9
2019-Sep-17 23:30 081 3 gusting 8 30.1
2019-Sep-17 23:20 060 0 gusting 7 30.3
2019-Sep-17 23:10 061 3 gusting 9 30.4
2019-Sep-17 23:00 064 2 gusting 9 30.6
2019-Sep-17 22:50 059 8 gusting 11 30.9
2019-Sep-17 22:40 056 4 gusting 9 31.1
2019-Sep-17 22:30 061 1 gusting 10 31.3
2019-Sep-17 22:20 035 1 gusting 15 31.4
2019-Sep-17 22:10 049 6 gusting 13 31.6
2019-Sep-17 22:00 050 5 gusting 13 31.7
2019-Sep-17 21:50 092 8 gusting 13 31.8
2019-Sep-17 21:40 061 12 gusting 13 32.1
2019-Sep-17 21:30 082 10 gusting 13 32.1
2019-Sep-17 21:20 056 2 gusting 12 32.3
2019-Sep-17 21:10 071 11 gusting 11 32.3
2019-Sep-17 21:00 049 6 gusting 13 32.2
2019-Sep-17 20:50 093 10 gusting 12 32.2
2019-Sep-17 20:40 048 7 gusting 13 32.3
2019-Sep-17 20:30 026 0 gusting 10 31.9
2019-Sep-17 20:20 071 7 gusting 12 32.2
2019-Sep-17 20:10 084 6 gusting 13 32.6
2019-Sep-17 20:00 087 6 gusting 13 32.7
2019-Sep-17 19:50 058 3 gusting 10 32.5
2019-Sep-17 19:40 076 6 gusting 13 32.6
2019-Sep-17 19:30 063 6 gusting 14 33.1
2019-Sep-17 19:20 044 5 gusting 11 33.4
2019-Sep-17 19:10 022 2 gusting 10 33.2
2019-Sep-17 19:00 103 6 gusting 12 33.3
2019-Sep-17 18:50 095 6 gusting 10 32.9
2019-Sep-17 18:40 063 9 gusting 10 32.9
2019-Sep-17 18:30 042 0 gusting 13 32.8
2019-Sep-17 18:20 079 6 gusting 11 33.4
2019-Sep-17 18:10 055 6 gusting 10 33.2
2019-Sep-17 18:00 058 1 gusting 13 32.7
2019-Sep-17 17:50 084 2 gusting 12 32.9
2019-Sep-17 17:40 059 0 gusting 9 32.8
2019-Sep-17 17:30 32.8
2019-Sep-17 17:20 092 2 gusting 9 32.5
2019-Sep-17 17:10 081 3 gusting 6 33.2
2019-Sep-17 17:00 072 2 gusting 8 32.3
2019-Sep-17 16:50 115 0 gusting 6 32.6
2019-Sep-17 16:40 080 4 gusting 8 32.3
2019-Sep-17 16:30 059 2 gusting 10 32.3
2019-Sep-17 16:20 084 3 gusting 5 32.4
2019-Sep-17 16:10 094 2 gusting 8 32.1
2019-Sep-17 16:00 071 1 gusting 7 32.6
2019-Sep-17 15:50 31.6
2019-Sep-17 15:40 053 0 gusting 6 31.7
2019-Sep-17 15:30 054 2 gusting 7 31.2
2019-Sep-17 15:20 055 0 gusting 7 30.7
2019-Sep-17 15:10 066 5 gusting 5 30.7
2019-Sep-17 15:00 076 3 gusting 8 30.6
2019-Sep-17 14:50 082 0 gusting 6 30.7
2019-Sep-17 14:40 065 1 gusting 8 30.2
2019-Sep-17 14:30 063 2 gusting 8 30.0
2019-Sep-17 14:20 060 6 gusting 9 29.8
2019-Sep-17 14:10 084 6 gusting 8 29.8
2019-Sep-17 14:00 079 1 gusting 9 29.6
2019-Sep-17 13:50 080 3 gusting 7 29.3
2019-Sep-17 13:40 063 2 gusting 7 29.2
2019-Sep-17 13:30 070 5 gusting 5 29.0
2019-Sep-17 13:20 069 2 gusting 4 28.8
2019-Sep-17 13:10 028 0 gusting 3 28.6
2019-Sep-17 13:00 28.2
2019-Sep-17 12:50 27.9
2019-Sep-17 12:40 27.4
2019-Sep-17 12:30 26.9
2019-Sep-17 12:20 26.3
2019-Sep-17 12:10 25.6
2019-Sep-17 12:00 25.1
2019-Sep-17 11:50 24.7
2019-Sep-17 11:40 24.4
2019-Sep-17 11:30 24.3
2019-Sep-17 11:20 24.2
2019-Sep-17 11:10 24.2
2019-Sep-17 11:00 24.2
2019-Sep-17 10:50 24.3
2019-Sep-17 10:40 24.4
2019-Sep-17 10:30 24.5
2019-Sep-17 10:20 24.6
2019-Sep-17 10:10 24.6
2019-Sep-17 10:00 24.6
2019-Sep-17 09:50 24.7
2019-Sep-17 09:40 24.7
2019-Sep-17 09:30 24.8
2019-Sep-17 09:20 24.8
2019-Sep-17 09:10 24.8
2019-Sep-17 09:00 24.9
2019-Sep-17 08:50 25.0
2019-Sep-17 08:40 24.9
2019-Sep-17 08:30 24.9
2019-Sep-17 08:20 25.0
2019-Sep-17 08:10 25.1
2019-Sep-17 08:00 25.2